Weather History for KDTW - August, 2014

Change the Weather History Date:

Wednesday, August 27, 2014

  Actual Average Record
Temperature  
Mean Temperature 73 °F 71 °F  
Max Temperature 81 °F 80 °F 98 °F (1948)
Min Temperature 64 °F 61 °F 47 °F (1964)
Degree Days  
Heating Degree Days 0 0  
Month to date heating degree days 5 0  
Since 1 June heating degree days 25 37  
Since 1 July heating degree days 13 2  
Cooling Degree Days 8 6  
Month to date cooling degree days 187 201  
Year to date cooling degree days 603 687  
Since 1 June cooling degree days 539 639  
Growing Degree Days 24 (Base 50)    
Moisture  
Dew Point 62 °F    
Average Humidity 74    
Maximum Humidity 97    
Minimum Humidity 51    
Precipitation  
Precipitation 0.00 in 0.09 in 1.30 in (1903)
Month to date precipitation 6.28 2.61  
Year to date precipitation 27.38 22.04  
Snow  
Snow 0.00 in 0.00 in 0.00 in ()
Month to date snowfall 0.0 0.0  
Since 1 June snowfall 0.0 0.0  
Since 1 July snowfall 0.0 0.0  
Snow Depth 0.00 in    
Sea Level Pressure  
Sea Level Pressure 30.09 in    
Wind  
Wind Speed 7 mph (NNW)    
Max Wind Speed 12 mph    
Max Gust Speed 15 mph    
Visibility 10 miles    
Events      
T = Trace of Precipitation, MM = Missing Value Source: NWS Daily Summary

Daily Weather History Graph

Daily Weather History Graph

Search for Another Location

Airport or City:

Trip Planner

Search our weather history database for the weather conditions in past years. The results will help you decide how hot, cold, wet, or windy it might be!

Date:

Astronomy

Aug. 27, 2014 Rise Set
Actual Time 6:53 AM EDT 8:15 PM EDT
Civil Twilight 6:24 AM EDT 8:44 PM EDT
Nautical Twilight 5:49 AM EDT 9:19 PM EDT
Astronomical Twilight 5:11 AM EDT 9:56 PM EDT
Moon 8:51 AM EDT (8/27) 9:03 PM EDT (8/27)
Length of Visible Light 14h 20m
Length of Day
13h 22m
Waxing Crescent, 4% of the Moon is Illuminated
Aug 27
Waxing Crescent
Sep 2
First Quarter
Sep 8
Full
Sep 15
Last Quarter
Sep 24
New

Hourly Weather History & Observations

Time (EDT) Temp. Heat Index Dew Point Humidity Pressure Visibility Wind Dir Wind Speed Gust Speed Precip Events Conditions
12:53 AM 70.0 °F - 68.0 °F 93% 30.07 in 10.0 mi WNW 9.2 mph - N/A   Mostly Cloudy
1:53 AM 70.0 °F - 68.0 °F 93% 30.06 in 10.0 mi WNW 8.1 mph - N/A   Mostly Cloudy
2:53 AM 69.1 °F - 66.9 °F 93% 30.07 in 10.0 mi NW 5.8 mph - N/A   Overcast
3:53 AM 68.0 °F - 66.0 °F 93% 30.07 in 8.0 mi NW 5.8 mph - N/A   Overcast
4:37 AM 69.8 °F - 66.2 °F 88% 30.08 in 6.0 mi NNW 5.8 mph - N/A   Overcast
4:53 AM 69.1 °F - 66.9 °F 93% 30.08 in 6.0 mi NNW 5.8 mph - N/A   Overcast
5:53 AM 68.0 °F - 64.0 °F 87% 30.08 in 10.0 mi NNE 6.9 mph - N/A   Overcast
6:53 AM 66.0 °F - 63.0 °F 90% 30.10 in 10.0 mi NNE 11.5 mph - N/A   Overcast
7:45 AM 66.2 °F - 62.6 °F 88% 30.11 in 10.0 mi NNE 5.8 mph - N/A   Overcast
7:53 AM 66.9 °F - 62.1 °F 84% 30.11 in 10.0 mi North 4.6 mph - N/A   Overcast
8:53 AM 69.1 °F - 63.0 °F 81% 30.12 in 10.0 mi North 5.8 mph - N/A   Overcast
9:53 AM 70.0 °F - 62.1 °F 76% 30.12 in 10.0 mi NNE 6.9 mph - N/A   Overcast
10:47 AM 71.6 °F - 62.6 °F 73% 30.13 in 10.0 mi North 6.9 mph - N/A   Overcast
10:53 AM 70.0 °F - 61.0 °F 73% 30.13 in 10.0 mi North 8.1 mph - N/A   Overcast
11:53 AM 73.0 °F - 62.1 °F 68% 30.13 in 10.0 mi NNW 4.6 mph - N/A   Mostly Cloudy
12:53 PM 75.0 °F - 62.1 °F 64% 30.12 in 10.0 mi NNW 4.6 mph - N/A   Mostly Cloudy
1:53 PM 73.9 °F - 61.0 °F 64% 30.10 in 10.0 mi NW 5.8 mph - N/A   Mostly Cloudy
2:53 PM 78.8 °F - 62.6 °F 57% 30.11 in 10.0 mi WNW 8.1 mph - N/A   Mostly Cloudy
3:53 PM 80.1 °F 81.1 °F 61.0 °F 52% 30.08 in 10.0 mi WNW 6.9 mph - N/A   Scattered Clouds
4:53 PM 77.0 °F - 59.0 °F 54% 30.07 in 10.0 mi Variable 6.9 mph - N/A   Mostly Cloudy
5:53 PM 75.0 °F - 59.0 °F 57% 30.08 in 10.0 mi WNW 10.4 mph - N/A   Mostly Cloudy
6:53 PM 73.9 °F - 57.9 °F 57% 30.07 in 10.0 mi NNW 8.1 mph - N/A   Mostly Cloudy
7:53 PM 72.0 °F - 57.9 °F 61% 30.08 in 10.0 mi NNW 6.9 mph - N/A   Mostly Cloudy
8:53 PM 70.0 °F - 57.9 °F 65% 30.08 in 10.0 mi NNW 5.8 mph - N/A   Mostly Cloudy
9:53 PM 69.1 °F - 57.9 °F 68% 30.10 in 10.0 mi NNW 4.6 mph - N/A   Mostly Cloudy
10:53 PM 68.0 °F - 59.0 °F 73% 30.11 in 10.0 mi East 3.5 mph - N/A   Mostly Cloudy
11:53 PM 66.0 °F - 59.0 °F 78% 30.11 in 10.0 mi ENE 4.6 mph - N/A   Mostly Cloudy